[[{"header":{"parameterUnit":"m.s-1","parameterCategory":1,"la1":30.2991,"la2":30.254,"lo1":-89.0895,"lo2":-89.0444,"dy":0.0017,"dx":0.0017,"nx":28,"ny":28,"refTime":"2024-04-28T21:00:00:Z","depth":0,"parameterNumber":2,"parameterNumberName":"U-component_of_WINDS"},"data":[0,0,0,0,0,0,0,0,0,0,0,0,0,0,0,0,0,0,0,0,0,0,0,0,0,0,0,0,0,0,0,0,0,0,0,0,0,0,0,0,0,0,0,0,0,0,0,0,0,0,0,0,0,0,0,0,0,0,-5.4124,-5.4123,0,-5.4101,-5.41,-5.41,-5.4029,-5.4027,-5.4026,-5.4024,-5.4003,-5.4004,-5.4004,0,0,0,0,0,0,0,0,0,0,0,0,0,-5.4109,-5.411,-5.4124,-5.4123,-5.4123,-5.4101,-5.41,-5.41,-5.4029,-5.4027,-5.4025,-5.4024,-5.4002,-5.4003,-5.4005,0,0,0,0,0,0,0,0,0,0,0,0,0,-5.4104,-5.411,-5.4124,-5.4085,-5.4081,-5.4101,-5.41,-5.41,-5.403,-5.4027,-5.4025,-5.4023,-5.4002,-5.4003,-5.4005,-5.406,0,0,-5.4009,-5.4009,0,0,0,0,0,0,0,0,-5.4104,-5.4105,-5.4091,-5.4088,-5.4084,-5.4065,-5.4087,-5.4087,-5.403,-5.4049,-5.4024,-5.4022,-5.4026,-5.4025,-5.4026,-5.4059,-5.4058,-5.4009,-5.401,-5.401,-5.4011,0,0,0,0,0,0,0,-5.4105,-5.4105,-5.4114,-5.4091,-5.4086,-5.407,-5.4066,-5.4087,-5.4051,-5.4048,-5.4042,-5.404,-5.4023,-5.4025,-5.4025,-5.4058,-5.4009,-5.401,-5.4011,-5.4011,-5.4136,-5.4138,0,0,0,0,0,0,-5.411,-5.4106,-5.4115,-5.4114,-5.4088,-5.4072,-5.4068,-5.4074,-5.4051,-5.4045,-5.4042,-5.4037,-5.4023,-5.4023,-5.4024,-5.4086,-5.401,-5.4011,-5.4012,-5.4133,-5.4136,-5.4139,0,0,0,0,0,0,-5.411,-5.4112,-5.4116,-5.4108,-5.4108,-5.4075,-5.4081,-5.4074,-5.4075,-5.4047,-5.404,-5.405,-5.4022,-5.4022,-5.4051,-5.4084,-5.4012,-5.4013,-5.413,-5.4134,-5.4138,-5.4211,0,0,0,0,0,0,-5.411,-5.4112,-5.4132,-5.4109,-5.4108,-5.4143,-5.4083,-5.4076,-5.4078,-5.4071,-5.4052,-5.4047,-5.402,-5.405,-5.4053,-5.4084,-5.4014,-5.4127,-5.4132,-5.4136,-5.4206,-5.4217,-5.4227,0,0,0,0,0,-5.411,-5.4154,-5.4133,-5.4135,-5.4132,-5.4145,-5.4145,-5.4112,-5.4081,-5.4101,-5.4083,-5.4048,-5.4081,-5.4053,-5.4056,-5.4089,-5.4125,-5.4131,-5.4136,-5.4201,-5.4215,-5.4226,0,0,0,0,0,0,-5.4181,-5.415,-5.4127,-5.4165,-5.4158,-5.4133,-5.4157,-5.4128,-5.413,-5.4123,-5.4084,-5.408,-5.4115,-5.4106,-5.4075,-5.4141,-5.4097,-5.4104,-5.4145,-5.4158,-5.4169,-5.4169,-5.4015,0,0,0,0,0,-5.4202,-5.4214,-5.4187,-5.4223,-5.4221,-5.419,-5.4195,-5.417,-5.4162,-5.4159,-5.4143,-5.4137,-5.4146,-5.4152,-5.4159,-5.4206,-5.42,-5.423,-5.424,-5.4249,-5.4254,-5.4277,-5.4289,-5.4157,-5.4157,-5.4157,0,0,-5.4243,-5.4228,-5.4238,-5.4237,-5.4229,-5.4243,-5.4188,-5.4206,-5.4216,-5.4162,-5.4187,-5.4176,-5.4167,-5.4205,-5.4221,-5.4198,-5.429,-5.4256,-5.4263,-5.4263,-5.4284,-5.4297,-5.4308,-5.4161,-5.4161,-5.416,0,0,-5.4325,-5.4316,-5.4344,-5.4338,-5.4326,-5.4306,-5.4314,-5.4294,-5.4283,-5.4309,-5.4269,-5.4282,-5.4298,-5.4293,-5.4293,-5.4376,-5.4344,-5.438,-5.4434,-5.4457,-5.4467,-5.4476,-5.4504,-5.4515,-5.4386,-5.4386,-5.4386,0,-5.4378,-5.4397,-5.4363,-5.4383,-5.4383,-5.4336,-5.4365,-5.4361,-5.4353,-5.4355,-5.433,-5.4349,-5.434,-5.4376,-5.4396,-5.4399,-5.4405,-5.438,-5.4469,-5.4477,-5.4485,-5.4511,-5.4522,-5.4391,-5.439,-5.439,-5.4389,0,-5.4462,-5.4477,-5.4501,-5.4494,-5.4498,-5.4523,-5.4493,-5.4501,-5.4478,-5.4461,-5.4488,-5.4476,-5.4479,-5.4487,-5.4464,-5.452,-5.4505,-5.4476,-5.4429,-5.4502,-5.4526,-5.4536,-5.4397,-5.4395,-5.4394,-5.4393,0,0,-5.4585,-5.456,-5.4569,-5.4565,-5.4551,-5.4561,-5.4585,-5.4588,-5.4595,-5.4593,-5.4611,-5.4627,-5.4599,-5.4599,-5.4576,-5.4597,-5.4662,-5.4564,-5.4563,-5.458,-5.4721,-5.4741,-5.4753,-5.4642,-5.4644,-5.4646,-5.4721,0,-5.4661,-5.4697,-5.4668,-5.471,-5.4723,-5.4679,-5.47,-5.4694,-5.4679,-5.4689,-5.4673,-5.4684,-5.4648,-5.4647,-5.4666,-5.465,-5.4689,-5.4645,-5.4658,-5.4658,-5.4657,-5.4766,-5.4788,-5.4859,-5.473,-5.4732,-5.4733,0,-5.4753,-5.4754,-5.4797,-5.478,-5.4784,-5.4802,-5.4803,-5.4813,-5.4806,-5.4794,-5.4795,-5.4767,-5.4789,-5.4748,-5.4778,-5.4748,-5.4753,-5.4746,-5.4748,-5.4745,-5.4697,-5.4764,-5.4881,-5.4891,-5.4748,-5.4747,-5.4746,0,-5.4835,-5.4848,-5.4874,-5.4873,-5.4855,-5.4869,-5.4862,-5.4852,-5.4856,-5.4858,-5.486,-5.4865,-5.4867,-5.4871,-5.4846,-5.4818,-5.4879,-5.4835,-5.4869,-5.487,-5.488,-5.4879,-5.4997,-5.4889,-5.4889,-5.4889,-5.4889,0,-5.4921,-5.4948,-5.4911,-5.4927,-5.4957,-5.4926,-5.4956,-5.4945,-5.4938,-5.4952,-5.4917,-5.4931,-5.4897,-5.4908,-5.4889,-5.4916,-5.4919,-5.4909,-5.4903,-5.491,-5.4911,-5.491,-5.4903,-5.4892,-5.4891,-5.489,-5.489,0,-5.5016,-5.4992,-5.5019,-5.5,-5.4996,-5.5019,-5.5002,-5.5017,-5.5002,-5.502,-5.5023,-5.4998,-5.5009,-5.4985,-5.4994,-5.4981,-5.5019,-5.5007,-5.502,-5.5016,-5.505,-5.5046,-5.5168,-5.5182,-5.5068,-5.5069,-5.507,0,-5.507,-5.509,-5.5074,-5.508,-5.5075,-5.5087,-5.509,-5.5061,-5.5067,-5.5061,-5.5077,-5.5085,-5.509,-5.511,-5.5093,-5.51,-5.5085,-5.5128,-5.5086,-5.5093,-5.5083,-5.5081,-5.5082,-5.5136,-5.5137,-5.5138,-5.5139,0,-5.5169,-5.5157,-5.5163,-5.5166,-5.5171,-5.5172,-5.5171,-5.5179,-5.5148,-5.5156,-5.5167,-5.5171,-5.5179,-5.5188,-5.519,-5.5184,-5.5156,-5.5153,-5.5161,-5.5167,-5.5173,-5.5168,-5.5041,-5.515,-5.5149,-5.5148,-5.5147,-5.5147,-5.5244,-5.5259,-5.525,-5.5259,-5.5255,-5.5254,-5.5267,-5.5254,-5.5262,-5.5266,-5.5249,-5.5263,-5.5257,-5.5258,-5.5255,-5.5266,-5.5247,-5.5259,-5.5261,-5.5264,-5.5268,-5.5174,-5.5267,-5.5267,-5.5267,-5.5267,-5.5266,0,-5.5338,-5.5331,-5.5339,-5.5338,-5.5345,-5.532,-5.5317,-5.5325,-5.5338,-5.5334,-5.534,-5.5353,-5.5361,-5.5346,-5.5353,-5.5365,-5.5352,-5.5367,-5.5364,-5.5363,-5.5286,-5.5278,-5.5377,-5.5377,-5.5377,-5.5377,-5.5377,-5.5377,-5.5388,-5.5413,-5.54,-5.5423,-5.5416,-5.5429,-5.543,-5.5429,-5.5426,-5.5442,-5.5449,-5.5439,-5.5431,-5.5437,-5.5444,-5.5439,-5.5442,-5.5461,-5.5452,-5.538,-5.5369,-5.5358,-5.535,-5.5463,-5.5463,-5.5527,-5.5528,-5.5528]},{"header":{"parameterUnit":"m.s-1","parameterCategory":1,"la1":30.2991,"la2":30.254,"lo1":-89.0895,"lo2":-89.0444,"dy":0.0017,"dx":0.0017,"nx":28,"ny":28,"refTime":"2024-04-28T21:00:00:Z","depth":0,"parameterNumber":3,"parameterNumberName":"V-component_of_WINDS"},"data":[0,0,0,0,0,0,0,0,0,0,0,0,0,0,0,0,0,0,0,0,0,0,0,0,0,0,0,0,0,0,0,0,0,0,0,0,0,0,0,0,0,0,0,0,0,0,0,0,0,0,0,0,0,0,0,0,0,0,5.0767,5.0767,0,5.0806,5.0806,5.0807,5.0849,5.085,5.0851,5.0851,5.0887,5.0887,5.0888,0,0,0,0,0,0,0,0,0,0,0,0,0,5.0725,5.0726,5.0767,5.0767,5.0768,5.0806,5.0806,5.0807,5.0849,5.085,5.0851,5.0852,5.0887,5.0887,5.0888,0,0,0,0,0,0,0,0,0,0,0,0,0,5.0751,5.0726,5.0766,5.0793,5.0796,5.0806,5.0806,5.0807,5.0849,5.085,5.0851,5.0852,5.0887,5.0887,5.0888,5.0873,0,0,5.089,5.089,0,0,0,0,0,0,0,0,5.075,5.0753,5.0789,5.0792,5.0795,5.0824,5.0805,5.0829,5.0849,5.0829,5.0851,5.0852,5.0865,5.0867,5.0873,5.0874,5.0876,5.089,5.089,5.089,5.089,0,0,0,0,0,0,0,5.0748,5.0751,5.0782,5.0789,5.0793,5.0803,5.0807,5.081,5.0841,5.0831,5.0834,5.0838,5.0867,5.0872,5.0874,5.0876,5.089,5.089,5.0891,5.0891,5.087,5.0869,0,0,0,0,0,0,5.0743,5.075,5.0781,5.0783,5.0774,5.0803,5.0808,5.0813,5.0841,5.0846,5.0837,5.084,5.0871,5.0873,5.0875,5.0861,5.089,5.0891,5.0891,5.087,5.0869,5.0868,0,0,0,0,0,0,5.0742,5.0745,5.0779,5.0767,5.0773,5.0802,5.0808,5.0814,5.0819,5.0846,5.0852,5.0837,5.0871,5.0874,5.0874,5.0863,5.0891,5.0892,5.0872,5.087,5.0869,5.0831,0,0,0,0,0,0,5.074,5.0744,5.0739,5.0767,5.0773,5.0778,5.0807,5.0814,5.0821,5.0824,5.0848,5.0852,5.0872,5.0873,5.0874,5.0864,5.0892,5.0873,5.0871,5.0869,5.0833,5.0828,5.0824,0,0,0,0,0,5.0739,5.0726,5.0739,5.0742,5.0768,5.0777,5.078,5.0805,5.0819,5.0815,5.0832,5.0852,5.0863,5.0872,5.0874,5.0864,5.0873,5.0871,5.0869,5.0835,5.0829,5.0824,0,0,0,0,0,0,5.0694,5.073,5.0745,5.0741,5.0756,5.0784,5.0779,5.0798,5.0808,5.0811,5.0839,5.0844,5.0841,5.0852,5.0861,5.0852,5.0871,5.087,5.0844,5.0839,5.0834,5.0832,5.0892,0,0,0,0,0,5.0684,5.069,5.072,5.0714,5.0721,5.0748,5.0753,5.0771,5.0788,5.0794,5.0811,5.0825,5.0832,5.0836,5.0844,5.0835,5.0841,5.0829,5.0824,5.082,5.0818,5.0816,5.0811,5.0862,5.0862,5.0862,0,0,5.0663,5.0683,5.0685,5.0705,5.0719,5.0724,5.0753,5.0757,5.0761,5.0794,5.0795,5.0808,5.0826,5.0821,5.082,5.0831,5.0806,5.0818,5.0814,5.0815,5.0813,5.0809,5.0804,5.086,5.0861,5.0861,0,0,5.0627,5.0643,5.064,5.0654,5.0675,5.0694,5.0693,5.072,5.073,5.0733,5.0758,5.0762,5.0773,5.0785,5.0793,5.0764,5.0782,5.0765,5.0741,5.0739,5.0735,5.0731,5.0722,5.0718,5.0763,5.0763,5.0763,0,5.0598,5.0607,5.0636,5.0639,5.0647,5.0679,5.0677,5.0688,5.071,5.0715,5.0727,5.0743,5.0757,5.0756,5.075,5.0754,5.0754,5.0763,5.0733,5.073,5.0727,5.0719,5.0715,5.0761,5.0761,5.0761,5.0762,0,5.0571,5.0577,5.0572,5.0595,5.0603,5.0603,5.0631,5.0635,5.0653,5.067,5.0672,5.069,5.0703,5.0704,5.072,5.0706,5.0712,5.0728,5.0749,5.072,5.0713,5.0709,5.0758,5.0759,5.0759,5.076,0,0,5.0507,5.0548,5.0546,5.0558,5.0584,5.0589,5.059,5.0605,5.0609,5.0623,5.0625,5.0634,5.065,5.0658,5.0676,5.0674,5.0651,5.069,5.0691,5.0683,5.0638,5.0627,5.0623,5.0663,5.0663,5.0662,5.0637,0,5.0477,5.0484,5.051,5.0509,5.0515,5.0547,5.0548,5.0564,5.058,5.0588,5.0605,5.0612,5.0631,5.0637,5.0636,5.0654,5.0642,5.0656,5.0665,5.0665,5.0661,5.0618,5.0606,5.0582,5.0634,5.0634,5.0633,0,5.0443,5.0458,5.0458,5.0486,5.049,5.0491,5.0507,5.0514,5.0533,5.0545,5.0555,5.0576,5.0579,5.0597,5.0602,5.0611,5.0616,5.0625,5.0625,5.0627,5.0648,5.0621,5.0574,5.0571,5.0629,5.0629,5.0629,0,5.0399,5.0418,5.0421,5.043,5.0463,5.0463,5.0476,5.0496,5.0504,5.0517,5.0523,5.0535,5.0543,5.0552,5.0575,5.0587,5.0577,5.0598,5.0587,5.0587,5.0584,5.0584,5.0539,5.0586,5.0586,5.0586,5.0586,0,5.0363,5.0362,5.0402,5.0404,5.0404,5.0434,5.0432,5.0448,5.0466,5.0471,5.0498,5.0501,5.0532,5.0539,5.0557,5.0558,5.0561,5.0571,5.0576,5.0569,5.0568,5.0573,5.0576,5.0585,5.0585,5.0586,5.0586,0,5.0314,5.0341,5.0346,5.0378,5.0386,5.0384,5.041,5.0413,5.0432,5.0438,5.0441,5.0469,5.0479,5.0504,5.0519,5.0531,5.0528,5.0537,5.0522,5.0526,5.0515,5.0516,5.0472,5.0468,5.0516,5.0516,5.0515,0,5.029,5.029,5.0322,5.0329,5.0342,5.0351,5.036,5.0389,5.0397,5.0419,5.0419,5.0432,5.0443,5.0457,5.0479,5.0491,5.0501,5.0485,5.0502,5.0496,5.0502,5.0502,5.0503,5.0481,5.048,5.0479,5.0479,0,5.0245,5.0259,5.0271,5.0288,5.0299,5.0313,5.0329,5.0332,5.0365,5.0372,5.0384,5.0393,5.041,5.0422,5.0438,5.0451,5.047,5.0473,5.0472,5.0465,5.0458,5.0463,5.0513,5.0474,5.0475,5.0475,5.0475,5.0475,5.0208,5.0211,5.0235,5.0248,5.0263,5.0278,5.0283,5.0303,5.0314,5.0332,5.0348,5.0358,5.0378,5.0401,5.0413,5.0421,5.0431,5.0428,5.0427,5.0427,5.0424,5.0456,5.0423,5.0423,5.0424,5.0424,5.0424,0,5.0166,5.0183,5.0195,5.0218,5.0229,5.0248,5.0267,5.0274,5.0283,5.0301,5.0313,5.0326,5.0339,5.0361,5.0376,5.0377,5.0387,5.038,5.0381,5.0384,5.0414,5.0415,5.0373,5.0373,5.0373,5.0373,5.0373,5.0373,5.0145,5.0151,5.0168,5.0182,5.0199,5.0211,5.022,5.0234,5.0248,5.0263,5.0275,5.029,5.031,5.0326,5.0338,5.0344,5.0348,5.0339,5.0348,5.0376,5.0381,5.0386,5.0387,5.034,5.034,5.0318,5.0318,5.0317]}]]